When you browse on this site, cookies collect data to enhance your experience and personalize the content and advertising you see.
Visit our Privacy Policy to learn more. By continuing to use the site, you agree to this use of cookies and data.
  • Em Portugal
  • Lista de países
  • Para 7 dias
  • Temperatura da água
  • Mapas de satélite
  • Mapa do tempo
  • Widgets de tempo
  • user-avatar
    Iniciar Sessão

    Previsão horária em Algiers

    Hoje, 22 Março, Sexta-feira

    Tempo Temperatura Precipitação Vento Pressão Humidade
    00:00 +12°C° 0.2 mm 5 m/s 753 mmHg 87%
    01:00 +12°C° 0.2 mm 4 m/s 753 mmHg 86%
    02:00 +12°C° 0.2 mm 4 m/s 753 mmHg 86%
    03:00 +12°C° 0.2 mm 4 m/s 752 mmHg 86%
    04:00 +12°C° 0.3 mm 4 m/s 752 mmHg 86%
    05:00 +12°C° 0.3 mm 4 m/s 752 mmHg 87%
    06:00 +12°C° 0.3 mm 4 m/s 752 mmHg 87%
    07:00 +13°C° 0.6 mm 4 m/s 753 mmHg 84%
    08:00 +13°C° 0.6 mm 4 m/s 753 mmHg 81%
    09:00 +14°C° 0.6 mm 4 m/s 753 mmHg 77%
    10:00 +14°C° 0.7 mm 4 m/s 753 mmHg 75%
    11:00 +15°C° 0.7 mm 4 m/s 753 mmHg 72%
    12:00 +15°C° 0.7 mm 5 m/s 753 mmHg 69%
    13:00 +15°C° 0.7 mm 5 m/s 753 mmHg 71%
    14:00 +15°C° 0.7 mm 5 m/s 753 mmHg 73%
    15:00 +14°C° 0.7 mm 6 m/s 753 mmHg 75%
    16:00 +14°C° 0.4 mm 5 m/s 753 mmHg 78%
    17:00 +13°C° 0.4 mm 4 m/s 753 mmHg 81%
    18:00 +13°C° 0.4 mm 4 m/s 753 mmHg 83%
    19:00 +13°C° 0.1 mm 4 m/s 754 mmHg 83%
    20:00 +12°C° 0.1 mm 3 m/s 754 mmHg 83%
    21:00 +12°C° 0.1 mm 3 m/s 754 mmHg 84%
    22:00 +13°C° 0 mm 2 m/s 755 mmHg 84%
    23:00 +13°C° 0 mm 2 m/s 755 mmHg 84%

    Amanhã, 23 Março, Sábado

    Tempo Temperatura Precipitação Vento Pressão Humidade
    00:00 +12°C° 0 mm 2 m/s 755 mmHg 84%
    01:00 +12°C° 0 mm 1 m/s 754 mmHg 85%
    02:00 +12°C° 0 mm 1 m/s 754 mmHg 85%
    03:00 +12°C° 0 mm 1 m/s 754 mmHg 86%
    04:00 +12°C° 0.1 mm 1 m/s 754 mmHg 86%
    05:00 +12°C° 0.1 mm 1 m/s 754 mmHg 86%
    06:00 +12°C° 0.1 mm 1 m/s 755 mmHg 86%
    07:00 +13°C° 0.3 mm 1 m/s 755 mmHg 86%
    08:00 +13°C° 0.3 mm 1 m/s 755 mmHg 86%
    09:00 +13°C° 0.3 mm 1 m/s 755 mmHg 85%
    10:00 +15°C° 0 mm 2 m/s 755 mmHg 80%
    11:00 +16°C° 0 mm 3 m/s 755 mmHg 75%
    12:00 +17°C° 0 mm 4 m/s 755 mmHg 70%
    13:00 +17°C° 0 mm 4 m/s 755 mmHg 70%
    14:00 +16°C° 0 mm 5 m/s 754 mmHg 69%
    15:00 +16°C° 0 mm 5 m/s 754 mmHg 69%
    16:00 +15°C° 0 mm 5 m/s 754 mmHg 72%
    17:00 +15°C° 0 mm 5 m/s 754 mmHg 75%
    18:00 +14°C° 0 mm 6 m/s 754 mmHg 78%
    19:00 +14°C° 0 mm 5 m/s 754 mmHg 79%
    20:00 +13°C° 0 mm 4 m/s 755 mmHg 80%
    21:00 +13°C° 0 mm 3 m/s 755 mmHg 81%
    22:00 +13°C° 0 mm 3 m/s 755 mmHg 81%
    23:00 +12°C° 0 mm 3 m/s 755 mmHg 81%

    Depois de amanhã, 24 Março, Domingo

    Tempo Temperatura Precipitação Vento Pressão Humidade
    00:00 +12°C° 0 mm 3 m/s 755 mmHg 81%
    01:00 +13°C° 0 mm 2 m/s 755 mmHg 80%
    02:00 +13°C° 0 mm 2 m/s 754 mmHg 79%
    03:00 +13°C° 0 mm 2 m/s 754 mmHg 77%
    04:00 +13°C° 0 mm 2 m/s 754 mmHg 76%
    05:00 +13°C° 0 mm 2 m/s 754 mmHg 74%
    06:00 +13°C° 0 mm 2 m/s 754 mmHg 72%
    07:00 +15°C° 0 mm 2 m/s 755 mmHg 67%
    08:00 +16°C° 0 mm 2 m/s 755 mmHg 61%
    09:00 +18°C° 0 mm 2 m/s 755 mmHg 55%
    10:00 +19°C° 0 mm 2 m/s 755 mmHg 52%
    11:00 +20°C° 0 mm 3 m/s 755 mmHg 49%
    12:00 +21°C° 0 mm 3 m/s 754 mmHg 45%
    13:00 +21°C° 0 mm 3 m/s 754 mmHg 48%
    14:00 +21°C° 0 mm 4 m/s 754 mmHg 50%
    15:00 +20°C° 0 mm 4 m/s 753 mmHg 52%
    16:00 +19°C° 0 mm 4 m/s 753 mmHg 57%
    17:00 +18°C° 0 mm 4 m/s 753 mmHg 63%
    18:00 +17°C° 0 mm 4 m/s 753 mmHg 68%
    19:00 +17°C° 0 mm 4 m/s 753 mmHg 68%
    20:00 +16°C° 0 mm 3 m/s 754 mmHg 68%
    21:00 +16°C° 0 mm 3 m/s 754 mmHg 68%
    22:00 +16°C° 0 mm 3 m/s 754 mmHg 65%
    23:00 +16°C° 0 mm 2 m/s 754 mmHg 62%

    25 Março, Segunda-feira

    Tempo Temperatura Precipitação Vento Pressão Humidade
    00:00 +16°C° 0 mm 2 m/s 754 mmHg 58%
    01:00 +15°C° 0 mm 2 m/s 753 mmHg 56%
    02:00 +15°C° 0 mm 2 m/s 753 mmHg 53%
    03:00 +14°C° 0 mm 3 m/s 753 mmHg 50%
    04:00 +14°C° 0 mm 3 m/s 753 mmHg 50%
    05:00 +14°C° 0 mm 3 m/s 753 mmHg 51%
    06:00 +14°C° 0 mm 3 m/s 753 mmHg 51%
    07:00 +16°C° 0 mm 2 m/s 753 mmHg 49%
    08:00 +18°C° 0 mm 2 m/s 754 mmHg 47%
    09:00 +20°C° 0 mm 2 m/s 754 mmHg 44%
    10:00 +21°C° 0 mm 2 m/s 754 mmHg 41%
    11:00 +23°C° 0 mm 2 m/s 753 mmHg 38%
    12:00 +25°C° 0 mm 2 m/s 753 mmHg 35%
    13:00 +24°C° 0 mm 3 m/s 753 mmHg 37%
    14:00 +23°C° 0 mm 4 m/s 752 mmHg 40%
    15:00 +22°C° 0 mm 5 m/s 752 mmHg 43%
    16:00 +21°C° 0 mm 5 m/s 752 mmHg 49%
    17:00 +19°C° 0 mm 4 m/s 752 mmHg 55%
    18:00 +18°C° 0 mm 4 m/s 752 mmHg 62%
    19:00 +17°C° 0 mm 4 m/s 752 mmHg 63%
    20:00 +17°C° 0 mm 3 m/s 752 mmHg 63%
    21:00 +17°C° 0 mm 3 m/s 753 mmHg 64%
    22:00 +17°C° 0 mm 3 m/s 752 mmHg 62%
    23:00 +16°C° 0 mm 3 m/s 752 mmHg 60%

    26 Março, Terça-feira

    Tempo Temperatura Precipitação Vento Pressão Humidade
    00:00 +16°C° 0 mm 3 m/s 752 mmHg 57%
    01:00 +16°C° 0 mm 3 m/s 752 mmHg 55%
    02:00 +16°C° 0 mm 3 m/s 752 mmHg 53%
    03:00 +16°C° 0 mm 3 m/s 752 mmHg 51%
    04:00 +16°C° 0 mm 3 m/s 752 mmHg 51%
    05:00 +14°C° 0 mm 3 m/s 752 mmHg 50%
    06:00 +14°C° 0 mm 3 m/s 752 mmHg 50%
    07:00 +17°C° 0 mm 3 m/s 752 mmHg 47%
    08:00 +19°C° 0 mm 3 m/s 752 mmHg 45%
    09:00 +21°C° 0 mm 3 m/s 753 mmHg 43%
    10:00 +21°C° 0 mm 4 m/s 752 mmHg 43%
    11:00 +22°C° 0 mm 5 m/s 752 mmHg 44%
    12:00 +23°C° 0 mm 6 m/s 752 mmHg 44%
    13:00 +22°C° 0 mm 6 m/s 752 mmHg 47%
    14:00 +22°C° 0 mm 7 m/s 751 mmHg 50%
    15:00 +22°C° 0 mm 7 m/s 751 mmHg 53%
    16:00 +21°C° 0 mm 6 m/s 751 mmHg 57%
    17:00 +19°C° 0 mm 6 m/s 751 mmHg 61%
    18:00 +17°C° 0 mm 5 m/s 751 mmHg 66%
    19:00 +17°C° 0 mm 5 m/s 751 mmHg 66%
    20:00 +16°C° 0 mm 5 m/s 752 mmHg 67%
    21:00 +16°C° 0 mm 5 m/s 752 mmHg 68%
    22:00 +16°C° 0 mm 5 m/s 752 mmHg 67%
    23:00 +16°C° 0 mm 5 m/s 752 mmHg 66%

    27 Março, Quarta-feira

    Tempo Temperatura Precipitação Vento Pressão Humidade
    00:00 +16°C° 0 mm 5 m/s 752 mmHg 65%
    01:00 +15°C° 0 mm 4 m/s 752 mmHg 63%
    02:00 +15°C° 0 mm 4 m/s 752 mmHg 60%
    03:00 +15°C° 0 mm 4 m/s 752 mmHg 58%
    04:00 +15°C° 0 mm 4 m/s 752 mmHg 55%
    05:00 +15°C° 0 mm 4 m/s 752 mmHg 52%
    06:00 +16°C° 0 mm 3 m/s 752 mmHg 49%
    07:00 +18°C° 0 mm 3 m/s 752 mmHg 46%
    08:00 +20°C° 0 mm 3 m/s 752 mmHg 42%
    09:00 +22°C° 0 mm 3 m/s 752 mmHg 39%
    10:00 +24°C° 0 mm 3 m/s 752 mmHg 37%
    11:00 +25°C° 0 mm 4 m/s 752 mmHg 36%
    12:00 +26°C° 0 mm 4 m/s 752 mmHg 35%
    13:00 +26°C° 0 mm 4 m/s 752 mmHg 35%
    14:00 +26°C° 0 mm 5 m/s 752 mmHg 36%
    15:00 +26°C° 0 mm 5 m/s 752 mmHg 36%
    16:00 +23°C° 0 mm 5 m/s 752 mmHg 40%
    17:00 +22°C° 0 mm 4 m/s 753 mmHg 44%
    18:00 +20°C° 0 mm 4 m/s 753 mmHg 49%
    19:00 +19°C° 0.2 mm 3 m/s 753 mmHg 53%
    20:00 +18°C° 0.2 mm 3 m/s 753 mmHg 58%
    21:00 +17°C° 0.2 mm 3 m/s 754 mmHg 62%
    22:00 +17°C° 0 mm 3 m/s 753 mmHg 63%
    23:00 +17°C° 0 mm 3 m/s 753 mmHg 64%
    Mostrar mais